LELLLEAL

Guest
Details From LELL - Sabadell
To LEAL - Alicante
Flight Number -
Tags generated
Created
Modified
Stats Distance 237 nm / 438 km
Max Altitude 26,400 ft / 8,047 m
Waypoints 4
Social Downloads 0
Likes 0
Share VATSIM

Download

Looking for another format? Having issues loading an existing format? Contact us
Advertisement - Login to hide

Notes

Basic altitude profile: - Ascent Rate: 2500ft/min - Ascent Speed: 250kts - Cruise Altitude: 35000ft - Cruise Speed: 420kts - Descent Rate: 1500ft/min - Descent Speed: 250kts Options: - Use NATs: yes - Use PACOTS: yes - Use low airways: yes - Use high airways: yes

Route

LELL LOTOS UM985 SOPET LEAL

ID Type Via Altitude Latitude Longitude Leg Dist Tot Dist Heading (true) Name
O LELL APT - 0 ft / 0 m 41.52098˚ 2.10491˚ - 0 nm - Sabadell
LOTOS FIX - 26,400 ft / 8,047 m 40.54969˚ 1.00298˚ 76 nm 76 nm 221° / 220° -
SOPET FIX UM985 (AWY-HI) 24,500 ft / 7,468 m 39.83384˚ -0.00468˚ 63 nm 139 nm 227° / 227° -
O LEAL APT - 0 ft / 0 m 38.28217˚ -0.55816˚ 96 nm 236 nm 196° / 195° Alicante

Altitude Profile

Advertisement - Login to hide

Weather


0- 5 10 15 20 25 30 35+ Temperature / ° C

Clouds and Precipitation
Forecast for 2017-12-15 18:00 UTC. Updated an hour ago

Ground ~20,000 ft ~40,000 ft Winds

LELL

Details ICAO LELL (QSA)
Name Sabadell
Region Spain
Timezone Europe/Madrid (UTC+1.0)
Stats Elevation 465 ft / 142 m (AMSL)
Location 41.520977° 2.104912°
Runways 1
Magnetic Variation 0.821° E

METAR

LELL 151400Z 24004KT 9999 FEW040 15/04 Q1005

Decode

TAF

TAF AMD LELL 151035Z 1510/1609 27010KT 9999 FEW030 TX15/1513Z TN03/1606Z TEMPO 1510/1516 27020G30KT

Decode

Departure Runways

ID Width Length Bearing (true) Bearing (mag) Surface Threshold Offset Overrun Length
13 98 ft / 30 m 2,956 ft / 901 m 127.50° 126.68° Asphalt 0 ft / 0 m 0 ft / 0 m
31 98 ft / 30 m 2,956 ft / 901 m 307.50° 306.68° Asphalt 0 ft / 0 m 0 ft / 0 m

LEAL

Details ICAO LEAL (ALC)
Name Alicante
Region Spain
Timezone Europe/Madrid (UTC+1.0)
Stats Elevation 141 ft / 43 m (AMSL)
Location 38.282169° -0.558157°
Runways 1
Magnetic Variation 0.184° E

METAR

LEAL 151400Z 26007KT 230V290 9999 FEW025 19/07 Q1008 NOSIG

Decode

TAF

TAF TAF LEAL 151100Z 1512/1612 29012KT 9999 FEW030 TX20/1513Z TN06/1606Z TEMPO 1512/1515 24011KT TEMPO 1512/1515 30012G25KT PROB40 TEMPO 1518/1521 RA BKN020 BECMG 1518/1520 30006KT

Decode

Destination Runways

ID Width Length Bearing (true) Bearing (mag) Surface Threshold Offset Overrun Length
10 148 ft / 45 m 9,799 ft / 2,987 m 100.07° 99.89° Asphalt 0 ft / 0 m 164 ft / 50 m
28 148 ft / 45 m 9,799 ft / 2,987 m 280.09° 279.91° Asphalt 0 ft / 0 m 197 ft / 60 m

Approach Navaids

Runway Type Ident Frequency Range Bearing (true) Bearing (mag) Slope Elevation
10 Localiser IAT 110.30 MHz 18 nm / 33 km 100.09° 99.91° - 29 ft / 9 m (AMSL)
10 Glidescope IAT 110.30 MHz 10 nm / 19 km 100.09° 99.91° 3.00° 129 ft / 39 m (AMSL)
10 DME IAT 110.30 MHz 18 nm / 33 km - - - 129 ft / 39 m (AMSL)

Popular Alternatives